Time,TemperatureF,DewpointF,PressureIn,WindDirection,WindDirectionDegrees,WindSpeedMPH,WindSpeedGustMPH,Humidity,HourlyPrecipIn,Conditions,Clouds,dailyrainin,SoftwareType,DateUTC
2013-06-26 00:01:00,73.6,67.1,29.58,SE,135,8.0,10.0,80,0.00,,,0.00,meteohub,2013-06-26 05:01:00,
2013-06-26 00:07:00,73.4,66.9,29.58,SE,135,8.0,9.0,80,0.00,,,0.00,meteohub,2013-06-26 05:07:00,
2013-06-26 00:12:00,73.2,66.4,29.58,SE,135,8.0,8.0,79,0.00,,,0.00,meteohub,2013-06-26 05:12:00,
2013-06-26 00:17:00,73.0,66.6,29.57,SE,135,8.0,9.0,80,0.00,,,0.00,meteohub,2013-06-26 05:17:00,
2013-06-26 00:22:00,73.0,66.6,29.57,SE,135,9.0,9.0,80,0.00,,,0.00,meteohub,2013-06-26 05:22:00,
2013-06-26 00:27:00,73.0,66.6,29.57,South,180,9.0,9.0,80,0.00,,,0.00,meteohub,2013-06-26 05:27:00,
2013-06-26 00:32:00,73.0,66.6,29.58,SE,135,7.0,9.0,80,0.00,,,0.00,meteohub,2013-06-26 05:32:00,
2013-06-26 00:37:00,72.9,66.4,29.58,SE,135,7.0,9.0,80,0.00,,,0.00,meteohub,2013-06-26 05:37:00,
2013-06-26 00:42:00,72.9,66.4,29.58,SE,135,8.0,9.0,80,0.00,,,0.00,meteohub,2013-06-26 05:42:00,
2013-06-26 00:48:00,72.9,66.4,29.58,SE,135,5.0,8.0,80,0.00,,,0.00,meteohub,2013-06-26 05:48:00,
2013-06-26 00:53:00,72.7,66.2,29.59,SE,135,5.0,8.0,80,0.00,,,0.00,meteohub,2013-06-26 05:53:00,
2013-06-26 00:58:00,72.5,66.0,29.58,SE,135,6.0,8.0,80,0.00,,,0.00,meteohub,2013-06-26 05:58:00,
2013-06-26 01:03:00,72.3,65.8,29.58,South,180,8.0,8.0,80,0.00,,,0.00,meteohub,2013-06-26 06:03:00,
2013-06-26 01:08:00,72.3,65.8,29.58,South,180,4.0,8.0,80,0.00,,,0.00,meteohub,2013-06-26 06:08:00,
2013-06-26 01:13:00,72.1,65.7,29.58,SE,135,6.0,8.0,80,0.00,,,0.00,meteohub,2013-06-26 06:13:00,
2013-06-26 01:18:00,72.0,65.8,29.58,SE,135,5.0,8.0,81,0.00,,,0.00,meteohub,2013-06-26 06:18:00,
2013-06-26 01:23:00,71.8,65.7,29.58,South,180,4.0,6.0,81,0.00,,,0.00,meteohub,2013-06-26 06:23:00,
2013-06-26 01:28:00,71.6,65.5,29.58,SE,135,4.0,6.0,81,0.00,,,0.00,meteohub,2013-06-26 06:28:00,
2013-06-26 01:33:00,71.4,65.7,29.58,SE,135,4.0,6.0,82,0.00,,,0.00,meteohub,2013-06-26 06:33:00,
2013-06-26 01:39:00,71.2,65.5,29.58,SE,135,4.0,5.0,82,0.00,,,0.00,meteohub,2013-06-26 06:39:00,
2013-06-26 01:44:00,71.2,65.5,29.58,SE,135,4.0,4.0,82,0.00,,,0.00,meteohub,2013-06-26 06:44:00,
2013-06-26 01:49:00,71.1,65.3,29.57,SE,135,4.0,4.0,82,0.00,,,0.00,meteohub,2013-06-26 06:49:00,
2013-06-26 01:54:00,70.9,65.1,29.57,SE,135,4.0,4.0,82,0.00,,,0.00,meteohub,2013-06-26 06:54:00,
2013-06-26 01:59:00,70.7,64.9,29.57,South,180,3.0,4.0,82,0.00,,,0.00,meteohub,2013-06-26 06:59:00,
2013-06-26 02:04:00,70.7,64.9,29.57,South,180,4.0,4.0,82,0.00,,,0.00,meteohub,2013-06-26 07:04:00,
2013-06-26 02:09:00,70.7,64.9,29.57,South,180,4.0,4.0,82,0.00,,,0.00,meteohub,2013-06-26 07:09:00,
2013-06-26 02:14:00,70.9,65.1,29.57,SE,135,4.0,6.0,82,0.00,,,0.00,meteohub,2013-06-26 07:14:00,
2013-06-26 02:19:00,70.7,64.9,29.56,SE,135,4.0,6.0,82,0.00,,,0.00,meteohub,2013-06-26 07:19:00,
2013-06-26 02:24:00,70.3,64.6,29.56,SE,135,4.0,4.0,82,0.00,,,0.00,meteohub,2013-06-26 07:24:00,
2013-06-26 02:29:00,70.3,64.6,29.56,SE,135,4.0,4.0,82,0.00,,,0.00,meteohub,2013-06-26 07:29:00,
2013-06-26 02:34:00,70.3,64.9,29.56,South,180,4.0,4.0,83,0.00,,,0.00,meteohub,2013-06-26 07:34:00,
2013-06-26 02:40:00,70.3,64.9,29.56,SE,135,4.0,4.0,83,0.00,,,0.00,meteohub,2013-06-26 07:40:00,
2013-06-26 02:45:00,70.2,64.8,29.57,SE,135,3.0,4.0,83,0.00,,,0.00,meteohub,2013-06-26 07:45:00,
2013-06-26 02:50:00,70.2,64.8,29.56,SE,135,3.0,4.0,83,0.00,,,0.00,meteohub,2013-06-26 07:50:00,
2013-06-26 02:55:00,70.2,64.8,29.57,SE,135,3.0,4.0,83,0.00,,,0.00,meteohub,2013-06-26 07:55:00,
2013-06-26 03:00:00,70.2,64.8,29.57,SE,135,4.0,4.0,83,0.00,,,0.00,meteohub,2013-06-26 08:00:00,
2013-06-26 03:05:00,70.2,64.8,29.57,SE,135,3.0,4.0,83,0.00,,,0.00,meteohub,2013-06-26 08:05:00,
2013-06-26 03:10:00,70.2,64.8,29.57,South,180,3.0,4.0,83,0.00,,,0.00,meteohub,2013-06-26 08:10:00,
2013-06-26 03:15:00,70.2,64.8,29.56,SE,135,3.0,4.0,83,0.00,,,0.00,meteohub,2013-06-26 08:15:00,
2013-06-26 03:21:00,70.3,65.3,29.56,SE,135,4.0,4.0,84,0.00,,,0.00,meteohub,2013-06-26 08:21:00,
2013-06-26 03:26:00,70.3,65.3,29.56,SE,135,2.0,4.0,84,0.00,,,0.00,meteohub,2013-06-26 08:26:00,
2013-06-26 03:31:00,70.7,65.7,29.57,South,180,3.0,4.0,84,0.00,,,0.00,meteohub,2013-06-26 08:31:00,
2013-06-26 03:36:00,70.7,65.7,29.56,South,180,2.0,4.0,84,0.00,,,0.00,meteohub,2013-06-26 08:36:00,
2013-06-26 03:41:00,70.7,65.7,29.56,South,180,0.0,3.0,84,0.00,,,0.00,meteohub,2013-06-26 08:41:00,
2013-06-26 03:46:00,70.3,65.3,29.56,South,180,2.0,3.0,84,0.00,,,0.00,meteohub,2013-06-26 08:46:00,
2013-06-26 03:51:00,70.3,65.3,29.56,SE,135,3.0,3.0,84,0.00,,,0.00,meteohub,2013-06-26 08:51:00,
2013-06-26 03:56:00,70.7,65.7,29.56,East,90,2.0,3.0,84,0.00,,,0.00,meteohub,2013-06-26 08:56:00,
2013-06-26 04:01:00,70.7,65.7,29.56,SE,135,2.0,3.0,84,0.00,,,0.00,meteohub,2013-06-26 09:01:00,
2013-06-26 04:06:00,70.9,65.8,29.55,East,90,4.0,4.0,84,0.00,,,0.00,meteohub,2013-06-26 09:06:00,
2013-06-26 04:11:00,70.9,65.8,29.56,East,90,3.0,4.0,84,0.00,,,0.00,meteohub,2013-06-26 09:11:00,
2013-06-26 04:16:00,71.1,66.0,29.56,East,90,4.0,4.0,84,0.00,,,0.00,meteohub,2013-06-26 09:16:00,
2013-06-26 04:22:00,71.1,66.0,29.56,East,90,4.0,4.0,84,0.00,,,0.00,meteohub,2013-06-26 09:22:00,
2013-06-26 04:27:00,71.1,66.0,29.55,East,90,3.0,4.0,84,0.00,,,0.00,meteohub,2013-06-26 09:27:00,
2013-06-26 04:32:00,71.1,66.0,29.56,NE,45,3.0,4.0,84,0.00,,,0.00,meteohub,2013-06-26 09:32:00,
2013-06-26 04:37:00,71.2,66.2,29.56,East,90,4.0,4.0,84,0.00,,,0.00,meteohub,2013-06-26 09:37:00,
2013-06-26 04:42:00,71.2,66.2,29.56,NE,45,3.0,4.0,84,0.00,,,0.00,meteohub,2013-06-26 09:42:00,
2013-06-26 04:47:00,71.8,66.7,29.57,NW,315,14.0,14.0,84,0.00,,,0.00,meteohub,2013-06-26 09:47:00,
2013-06-26 04:52:00,72.3,67.3,29.57,NW,315,11.0,15.0,84,0.00,,,0.00,meteohub,2013-06-26 09:52:00,
2013-06-26 04:57:00,73.0,68.2,29.57,North,0,9.0,15.0,85,0.00,,,0.00,meteohub,2013-06-26 09:57:00,
2013-06-26 05:03:00,73.0,68.2,29.57,SW,225,7.0,15.0,85,0.00,,,0.00,meteohub,2013-06-26 10:03:00,
2013-06-26 05:08:00,72.3,67.3,29.59,North,0,11.0,11.0,84,0.00,,,0.00,meteohub,2013-06-26 10:08:00,
2013-06-26 05:13:00,71.4,66.7,29.59,North,0,9.0,13.0,85,0.00,,,0.00,meteohub,2013-06-26 10:13:00,
2013-06-26 05:18:00,70.7,65.7,29.57,East,90,11.0,13.0,84,0.00,,,0.00,meteohub,2013-06-26 10:18:00,
2013-06-26 05:23:00,70.3,65.3,29.57,NE,45,8.0,13.0,84,0.00,,,0.00,meteohub,2013-06-26 10:23:00,
2013-06-26 05:28:00,70.2,65.1,29.58,ENE,68,15.0,15.0,84,0.00,,,0.00,meteohub,2013-06-26 10:28:00,
2013-06-26 05:33:00,70.0,64.9,29.59,East,90,11.0,15.0,84,0.00,,,0.00,meteohub,2013-06-26 10:33:00,
2013-06-26 05:38:00,69.8,64.8,29.59,NE,45,13.0,15.0,84,0.00,,,0.00,meteohub,2013-06-26 10:38:00,
2013-06-26 05:43:00,69.8,64.8,29.60,NE,45,11.0,15.0,84,0.00,,,0.00,meteohub,2013-06-26 10:43:00,
2013-06-26 05:48:00,69.8,64.8,29.60,East,90,10.0,15.0,84,0.00,,,0.00,meteohub,2013-06-26 10:48:00,
2013-06-26 05:54:00,69.8,64.8,29.59,East,90,11.0,15.0,84,0.00,,,0.00,meteohub,2013-06-26 10:54:00,
2013-06-26 05:59:00,69.4,64.8,29.59,East,90,6.0,15.0,85,0.00,,,0.00,meteohub,2013-06-26 10:59:00,
2013-06-26 06:04:00,69.4,64.8,29.59,SE,135,4.0,12.0,85,0.00,,,0.00,meteohub,2013-06-26 11:04:00,
2013-06-26 06:09:00,69.1,64.4,29.59,East,90,2.0,12.0,85,0.00,,,0.00,meteohub,2013-06-26 11:09:00,
2013-06-26 06:14:00,68.9,64.2,29.59,SE,135,3.0,10.0,85,0.00,,,0.00,meteohub,2013-06-26 11:14:00,
2013-06-26 06:19:00,68.7,64.0,29.58,SE,135,3.0,5.0,85,0.00,,,0.00,meteohub,2013-06-26 11:19:00,
2013-06-26 06:24:00,68.5,63.9,29.58,South,180,0.0,4.0,85,0.00,,,0.00,meteohub,2013-06-26 11:24:00,
2013-06-26 06:29:00,68.7,64.0,29.58,SE,135,2.0,4.0,85,0.00,,,0.00,meteohub,2013-06-26 11:29:00,
2013-06-26 06:34:00,68.9,64.2,29.57,South,180,2.0,4.0,85,0.00,,,0.00,meteohub,2013-06-26 11:34:00,
2013-06-26 06:39:00,68.9,64.2,29.57,South,180,3.0,4.0,85,0.00,,,0.00,meteohub,2013-06-26 11:39:00,
2013-06-26 06:44:00,69.1,64.4,29.58,NE,45,13.0,13.0,85,0.00,,,0.00,meteohub,2013-06-26 11:44:00,
2013-06-26 06:50:00,69.3,64.6,29.58,NE,45,8.0,11.0,85,0.00,,,0.00,meteohub,2013-06-26 11:50:00,
2013-06-26 06:55:00,69.4,65.1,29.59,NE,45,8.0,13.0,86,0.00,,,0.00,meteohub,2013-06-26 11:55:00,
2013-06-26 07:00:00,69.6,65.3,29.58,ENE,68,8.0,13.0,86,0.00,,,0.00,meteohub,2013-06-26 12:00:00,
2013-06-26 07:05:00,69.8,65.1,29.59,SE,135,5.0,11.0,85,0.00,,,0.00,meteohub,2013-06-26 12:05:00,
2013-06-26 07:10:00,69.8,65.1,29.58,East,90,4.0,9.0,85,0.00,,,0.00,meteohub,2013-06-26 12:10:00,
2013-06-26 07:15:00,69.8,65.1,29.58,East,90,0.0,8.0,85,0.00,,,0.00,meteohub,2013-06-26 12:15:00,
2013-06-26 07:20:00,69.8,65.1,29.59,SE,135,2.0,8.0,85,0.00,,,0.00,meteohub,2013-06-26 12:20:00,
2013-06-26 07:25:00,69.8,64.8,29.58,East,90,3.0,4.0,84,0.00,,,0.00,meteohub,2013-06-26 12:25:00,
2013-06-26 07:30:00,69.6,64.9,29.58,SE,135,3.0,4.0,85,0.00,,,0.00,meteohub,2013-06-26 12:30:00,
2013-06-26 07:35:00,69.6,64.9,29.58,South,180,4.0,4.0,85,0.00,,,0.00,meteohub,2013-06-26 12:35:00,
2013-06-26 07:40:00,69.6,64.9,29.58,South,180,4.0,4.0,85,0.00,,,0.00,meteohub,2013-06-26 12:40:00,
2013-06-26 07:45:00,69.6,64.9,29.59,NW,315,4.0,4.0,85,0.00,,,0.00,meteohub,2013-06-26 12:45:00,
2013-06-26 07:51:00,70.3,65.7,29.59,NW,315,5.0,6.0,85,0.00,,,0.00,meteohub,2013-06-26 12:51:00,
2013-06-26 07:56:00,73.2,68.4,29.60,NW,315,11.0,11.0,85,0.00,,,0.00,meteohub,2013-06-26 12:56:00,
2013-06-26 08:01:00,75.9,70.7,29.60,NW,315,11.0,12.0,84,0.00,,,0.00,meteohub,2013-06-26 13:01:00,
2013-06-26 08:06:00,78.6,72.7,29.60,NW,315,7.0,13.0,82,0.00,,,0.00,meteohub,2013-06-26 13:06:00,
2013-06-26 08:11:00,81.5,74.3,29.60,NW,315,7.0,13.0,79,0.00,,,0.00,meteohub,2013-06-26 13:11:00,
2013-06-26 08:16:00,82.9,74.1,29.61,NW,315,7.0,11.0,75,0.00,,,0.00,meteohub,2013-06-26 13:16:00,
2013-06-26 08:21:00,83.5,73.6,29.61,NW,315,8.0,10.0,72,0.00,,,0.00,meteohub,2013-06-26 13:21:00,
2013-06-26 08:26:00,82.9,72.1,29.61,NW,315,13.0,13.0,70,0.00,,,0.00,meteohub,2013-06-26 13:26:00,
2013-06-26 08:31:00,82.0,70.9,29.62,West,270,11.0,13.0,69,0.00,,,0.00,meteohub,2013-06-26 13:31:00,
2013-06-26 08:37:00,81.7,70.2,29.62,West,270,14.0,15.0,68,0.00,,,0.00,meteohub,2013-06-26 13:37:00,
2013-06-26 08:42:00,81.1,69.1,29.62,West,270,11.0,15.0,67,0.00,,,0.00,meteohub,2013-06-26 13:42:00,
2013-06-26 08:47:00,80.4,68.5,29.62,West,270,11.0,15.0,67,0.00,,,0.00,meteohub,2013-06-26 13:47:00,
2013-06-26 08:52:00,79.3,66.6,29.62,West,270,12.0,16.0,65,0.00,,,0.00,meteohub,2013-06-26 13:52:00,
2013-06-26 08:57:00,79.2,66.7,29.62,West,270,12.0,16.0,66,0.00,,,0.00,meteohub,2013-06-26 13:57:00,
2013-06-26 09:02:00,79.2,66.4,29.62,West,270,11.0,16.0,65,0.00,,,0.00,meteohub,2013-06-26 14:02:00,
2013-06-26 09:07:00,78.4,66.9,29.62,West,270,12.0,16.0,68,0.00,,,0.00,meteohub,2013-06-26 14:07:00,
2013-06-26 09:12:00,77.9,67.3,29.62,West,270,15.0,15.0,70,0.00,,,0.00,meteohub,2013-06-26 14:12:00,
2013-06-26 09:17:00,77.5,66.2,29.62,West,270,17.0,17.0,68,0.00,,,0.00,meteohub,2013-06-26 14:17:00,
2013-06-26 09:22:00,77.2,66.2,29.62,NW,315,15.0,17.0,69,0.00,,,0.00,meteohub,2013-06-26 14:22:00,
2013-06-26 09:27:00,77.2,66.6,29.63,West,270,15.0,17.0,70,0.00,,,0.00,meteohub,2013-06-26 14:27:00,
2013-06-26 09:32:00,77.5,66.9,29.63,West,270,13.0,17.0,70,0.00,,,0.00,meteohub,2013-06-26 14:32:00,
2013-06-26 09:38:00,77.5,66.9,29.63,West,270,15.0,17.0,70,0.00,,,0.00,meteohub,2013-06-26 14:38:00,
2013-06-26 09:43:00,77.5,66.9,29.63,West,270,15.0,17.0,70,0.00,,,0.00,meteohub,2013-06-26 14:43:00,
2013-06-26 09:48:00,77.7,67.1,29.63,West,270,19.0,19.0,70,0.00,,,0.00,meteohub,2013-06-26 14:48:00,
2013-06-26 09:53:00,77.5,66.9,29.63,NW,315,15.0,18.0,70,0.00,,,0.00,meteohub,2013-06-26 14:53:00,
2013-06-26 09:59:00,77.9,67.3,29.63,West,270,16.0,19.0,70,0.00,,,0.00,meteohub,2013-06-26 14:59:00,
2013-06-26 10:04:00,78.1,67.1,29.63,NW,315,12.0,19.0,69,0.00,,,0.00,meteohub,2013-06-26 15:04:00,
2013-06-26 10:09:00,78.4,66.9,29.63,NW,315,12.0,17.0,68,0.00,,,0.00,meteohub,2013-06-26 15:09:00,
2013-06-26 10:14:00,79.0,67.1,29.63,North,0,11.0,17.0,67,0.00,,,0.00,meteohub,2013-06-26 15:14:00,
2013-06-26 10:19:00,79.5,66.7,29.63,North,0,11.0,16.0,65,0.00,,,0.00,meteohub,2013-06-26 15:19:00,
2013-06-26 10:24:00,79.5,66.7,29.64,NW,315,12.0,16.0,65,0.00,,,0.00,meteohub,2013-06-26 15:24:00,
2013-06-26 10:29:00,79.9,67.1,29.64,NW,315,16.0,16.0,65,0.00,,,0.00,meteohub,2013-06-26 15:29:00,
2013-06-26 10:34:00,79.7,66.9,29.64,West,270,12.0,15.0,65,0.00,,,0.00,meteohub,2013-06-26 15:34:00,
2013-06-26 10:40:00,80.1,67.6,29.64,West,270,16.0,16.0,66,0.00,,,0.00,meteohub,2013-06-26 15:40:00,
2013-06-26 10:45:00,80.1,67.3,29.64,NW,315,14.0,17.0,65,0.00,,,0.00,meteohub,2013-06-26 15:45:00,
2013-06-26 10:50:00,80.4,68.5,29.64,West,270,13.0,17.0,67,0.00,,,0.00,meteohub,2013-06-26 15:50:00,
2013-06-26 10:55:00,80.2,67.8,29.64,NW,315,16.0,17.0,66,0.00,,,0.00,meteohub,2013-06-26 15:55:00,
2013-06-26 11:00:00,80.6,67.8,29.64,West,270,14.0,17.0,65,0.00,,,0.00,meteohub,2013-06-26 16:00:00,
2013-06-26 11:05:00,80.8,67.5,29.65,West,270,15.0,19.0,64,0.00,,,0.00,meteohub,2013-06-26 16:05:00,
2013-06-26 11:10:00,80.6,67.3,29.65,NW,315,15.0,19.0,64,0.00,,,0.00,meteohub,2013-06-26 16:10:00,
2013-06-26 11:16:00,80.8,67.5,29.64,NW,315,12.0,19.0,64,0.00,,,0.00,meteohub,2013-06-26 16:16:00,
2013-06-26 11:21:00,81.0,67.6,29.65,NW,315,16.0,20.0,64,0.00,,,0.00,meteohub,2013-06-26 16:21:00,
2013-06-26 11:26:00,81.1,67.8,29.64,NW,315,17.0,20.0,64,0.00,,,0.00,meteohub,2013-06-26 16:26:00,
2013-06-26 11:31:00,81.1,68.2,29.64,NW,315,15.0,20.0,65,0.00,,,0.00,meteohub,2013-06-26 16:31:00,
2013-06-26 11:36:00,81.7,68.7,29.65,West,270,19.0,21.0,65,0.00,,,0.00,meteohub,2013-06-26 16:36:00,
2013-06-26 11:41:00,81.7,67.5,29.65,NW,315,23.0,23.0,62,0.00,,,0.00,meteohub,2013-06-26 16:41:00,
2013-06-26 11:46:00,81.9,67.1,29.66,NW,315,21.0,24.0,61,0.00,,,0.00,meteohub,2013-06-26 16:46:00,
2013-06-26 11:51:00,82.0,67.6,29.65,NW,315,21.0,24.0,62,0.00,,,0.00,meteohub,2013-06-26 16:51:00,
2013-06-26 11:56:00,82.0,67.3,29.65,West,270,21.0,26.0,61,0.00,,,0.00,meteohub,2013-06-26 16:56:00,
2013-06-26 12:02:00,82.4,67.1,29.65,West,270,25.0,26.0,60,0.00,,,0.00,meteohub,2013-06-26 17:02:00,
2013-06-26 12:07:00,82.2,66.4,29.66,West,270,25.0,27.0,59,0.00,,,0.00,meteohub,2013-06-26 17:07:00,
2013-06-26 12:12:00,82.6,66.7,29.66,NW,315,24.0,28.0,59,0.00,,,0.00,meteohub,2013-06-26 17:12:00,
2013-06-26 12:17:00,82.6,65.8,29.66,NW,315,26.0,28.0,57,0.00,,,0.00,meteohub,2013-06-26 17:17:00,
2013-06-26 12:22:00,82.6,65.8,29.66,North,0,21.0,28.0,57,0.00,,,0.00,meteohub,2013-06-26 17:22:00,
2013-06-26 12:28:00,82.6,65.8,29.66,NW,315,22.0,27.0,57,0.00,,,0.00,meteohub,2013-06-26 17:28:00,
2013-06-26 12:33:00,83.1,66.4,29.66,NW,315,25.0,27.0,57,0.00,,,0.00,meteohub,2013-06-26 17:33:00,
2013-06-26 12:38:00,83.3,64.9,29.66,NW,315,25.0,27.0,54,0.00,,,0.00,meteohub,2013-06-26 17:38:00,
2013-06-26 12:43:00,83.3,65.5,29.66,NW,315,21.0,26.0,55,0.00,,,0.00,meteohub,2013-06-26 17:43:00,
2013-06-26 12:49:00,82.9,65.1,29.66,NW,315,21.0,26.0,55,0.00,,,0.00,meteohub,2013-06-26 17:49:00,
2013-06-26 12:54:00,83.7,65.8,29.66,NW,315,25.0,26.0,55,0.00,,,0.00,meteohub,2013-06-26 17:54:00,
2013-06-26 12:59:00,83.7,66.4,29.66,NW,315,23.0,26.0,56,0.00,,,0.00,meteohub,2013-06-26 17:59:00,
2013-06-26 13:04:00,83.5,64.6,29.66,NW,315,32.0,32.0,53,0.00,,,0.00,meteohub,2013-06-26 18:04:00,
2013-06-26 13:10:00,83.7,65.3,29.65,NW,315,17.0,27.0,54,0.00,,,0.00,meteohub,2013-06-26 18:10:00,
2013-06-26 13:15:00,84.0,65.1,29.65,NW,315,27.0,32.0,53,0.00,,,0.00,meteohub,2013-06-26 18:15:00,
2013-06-26 13:20:00,83.3,64.4,29.65,NW,315,20.0,28.0,53,0.00,,,0.00,meteohub,2013-06-26 18:20:00,
2013-06-26 13:26:00,83.3,64.4,29.65,NW,315,23.0,32.0,53,0.00,,,0.00,meteohub,2013-06-26 18:26:00,
2013-06-26 13:31:00,84.0,64.6,29.66,NW,315,30.0,32.0,52,0.00,,,0.00,meteohub,2013-06-26 18:31:00,
2013-06-26 13:36:00,83.8,64.4,29.65,NW,315,21.0,32.0,52,0.00,,,0.00,meteohub,2013-06-26 18:36:00,
2013-06-26 13:41:00,84.4,63.1,29.65,West,270,21.0,31.0,49,0.00,,,0.00,meteohub,2013-06-26 18:41:00,
2013-06-26 13:47:00,84.6,63.9,29.65,NW,315,21.0,31.0,50,0.00,,,0.00,meteohub,2013-06-26 18:47:00,
2013-06-26 13:52:00,85.1,64.9,29.65,NW,315,27.0,29.0,51,0.00,,,0.00,meteohub,2013-06-26 18:52:00,
2013-06-26 13:57:00,84.6,63.9,29.65,West,270,24.0,30.0,50,0.00,,,0.00,meteohub,2013-06-26 18:57:00,
2013-06-26 14:03:00,84.6,64.4,29.65,NW,315,23.0,30.0,51,0.00,,,0.00,meteohub,2013-06-26 19:03:00,
2013-06-26 14:08:00,84.7,64.6,29.65,West,270,23.0,30.0,51,0.00,,,0.00,meteohub,2013-06-26 19:08:00,
2013-06-26 14:13:00,84.6,64.4,29.66,West,270,23.0,29.0,51,0.00,,,0.00,meteohub,2013-06-26 19:13:00,
2013-06-26 14:18:00,84.9,64.2,29.66,NW,315,24.0,28.0,50,0.00,,,0.00,meteohub,2013-06-26 19:18:00,
2013-06-26 14:23:00,85.1,64.9,29.65,NW,315,25.0,28.0,51,0.00,,,0.00,meteohub,2013-06-26 19:23:00,
2013-06-26 14:29:00,85.1,63.9,29.65,NW,315,26.0,29.0,49,0.00,,,0.00,meteohub,2013-06-26 19:29:00,
2013-06-26 14:34:00,85.3,65.1,29.66,NW,315,33.0,33.0,51,0.00,,,0.00,meteohub,2013-06-26 19:34:00,
2013-06-26 14:39:00,85.6,64.2,29.65,NW,315,30.0,33.0,49,0.00,,,0.00,meteohub,2013-06-26 19:39:00,
2013-06-26 14:45:00,85.3,63.3,29.66,West,270,24.0,33.0,48,0.00,,,0.00,meteohub,2013-06-26 19:45:00,
2013-06-26 14:50:00,85.5,62.2,29.65,West,270,23.0,33.0,46,0.00,,,0.00,meteohub,2013-06-26 19:50:00,
2013-06-26 14:55:00,86.0,62.8,29.66,West,270,32.0,33.0,46,0.00,,,0.00,meteohub,2013-06-26 19:55:00,
2013-06-26 15:00:00,86.2,64.2,29.66,NW,315,23.0,32.0,48,0.00,,,0.00,meteohub,2013-06-26 20:00:00,
2013-06-26 15:05:00,86.0,62.8,29.66,West,270,29.0,34.0,46,0.00,,,0.00,meteohub,2013-06-26 20:05:00,
2013-06-26 15:10:00,85.8,62.6,29.67,NW,315,25.0,34.0,46,0.00,,,0.00,meteohub,2013-06-26 20:10:00,
2013-06-26 15:16:00,85.8,63.3,29.67,NW,315,26.0,34.0,47,0.00,,,0.00,meteohub,2013-06-26 20:16:00,
2013-06-26 15:21:00,85.5,61.7,29.66,NW,315,24.0,34.0,45,0.00,,,0.00,meteohub,2013-06-26 20:21:00,
2013-06-26 15:26:00,86.0,62.2,29.67,NW,315,28.0,29.0,45,0.00,,,0.00,meteohub,2013-06-26 20:26:00,
2013-06-26 15:31:00,86.5,62.6,29.67,NW,315,23.0,31.0,45,0.00,,,0.00,meteohub,2013-06-26 20:31:00,
2013-06-26 15:36:00,86.5,62.1,29.67,NW,315,30.0,31.0,44,0.00,,,0.00,meteohub,2013-06-26 20:36:00,
2013-06-26 15:41:00,86.4,61.2,29.67,West,270,27.0,30.0,43,0.00,,,0.00,meteohub,2013-06-26 20:41:00,
2013-06-26 15:47:00,86.0,60.3,29.67,NW,315,23.0,33.0,42,0.00,,,0.00,meteohub,2013-06-26 20:47:00,
2013-06-26 15:52:00,86.2,59.7,29.67,West,270,25.0,33.0,41,0.00,,,0.00,meteohub,2013-06-26 20:52:00,
2013-06-26 15:57:00,86.4,60.6,29.67,NW,315,33.0,33.0,42,0.00,,,0.00,meteohub,2013-06-26 20:57:00,
2013-06-26 16:02:00,86.7,60.8,29.67,NW,315,29.0,33.0,42,0.00,,,0.00,meteohub,2013-06-26 21:02:00,
2013-06-26 16:07:00,86.5,60.1,29.68,NW,315,27.0,33.0,41,0.00,,,0.00,meteohub,2013-06-26 21:07:00,
2013-06-26 16:13:00,86.5,60.8,29.67,West,270,31.0,33.0,42,0.00,,,0.00,meteohub,2013-06-26 21:13:00,
2013-06-26 16:18:00,86.0,60.3,29.67,North,0,23.0,31.0,42,0.00,,,0.00,meteohub,2013-06-26 21:18:00,
2013-06-26 16:23:00,86.0,61.0,29.67,NW,315,25.0,31.0,43,0.00,,,0.00,meteohub,2013-06-26 21:23:00,
2013-06-26 16:28:00,86.0,61.0,29.67,NW,315,24.0,31.0,43,0.00,,,0.00,meteohub,2013-06-26 21:28:00,
2013-06-26 16:33:00,86.7,61.5,29.67,NW,315,24.0,31.0,43,0.00,,,0.00,meteohub,2013-06-26 21:33:00,
2013-06-26 16:38:00,86.2,60.4,29.67,NW,315,21.0,26.0,42,0.00,,,0.00,meteohub,2013-06-26 21:38:00,
2013-06-26 16:43:00,86.5,62.1,29.67,NW,315,26.0,27.0,44,0.00,,,0.00,meteohub,2013-06-26 21:43:00,
2013-06-26 16:48:00,86.4,60.6,29.67,NW,315,22.0,27.0,42,0.00,,,0.00,meteohub,2013-06-26 21:48:00,
2013-06-26 16:53:00,87.1,61.9,29.67,NW,315,17.0,27.0,43,0.00,,,0.00,meteohub,2013-06-26 21:53:00,
2013-06-26 16:59:00,86.7,60.8,29.67,NW,315,24.0,27.0,42,0.00,,,0.00,meteohub,2013-06-26 21:59:00,
2013-06-26 17:04:00,86.4,60.6,29.67,West,270,21.0,27.0,42,0.00,,,0.00,meteohub,2013-06-26 22:04:00,
2013-06-26 17:09:00,86.7,60.8,29.68,NW,315,24.0,27.0,42,0.00,,,0.00,meteohub,2013-06-26 22:09:00,
2013-06-26 17:14:00,87.1,61.2,29.67,NW,315,21.0,27.0,42,0.00,,,0.00,meteohub,2013-06-26 22:14:00,
2013-06-26 17:20:00,87.6,61.7,29.67,NW,315,22.0,27.0,42,0.00,,,0.00,meteohub,2013-06-26 22:20:00,
2013-06-26 17:25:00,87.6,60.3,29.67,NW,315,21.0,27.0,40,0.00,,,0.00,meteohub,2013-06-26 22:25:00,
2013-06-26 17:30:00,87.4,60.8,29.67,NW,315,19.0,26.0,41,0.00,,,0.00,meteohub,2013-06-26 22:30:00,
2013-06-26 17:35:00,87.8,59.7,29.67,NW,315,22.0,24.0,39,0.00,,,0.00,meteohub,2013-06-26 22:35:00,
2013-06-26 17:40:00,88.2,60.1,29.67,NW,315,25.0,25.0,39,0.00,,,0.00,meteohub,2013-06-26 22:40:00,
2013-06-26 17:45:00,88.0,60.6,29.68,NW,315,21.0,25.0,40,0.00,,,0.00,meteohub,2013-06-26 22:45:00,
2013-06-26 17:50:00,88.0,59.9,29.67,North,0,16.0,25.0,39,0.00,,,0.00,meteohub,2013-06-26 22:50:00,
2013-06-26 17:55:00,88.7,61.3,29.68,NW,315,21.0,25.0,40,0.00,,,0.00,meteohub,2013-06-26 22:55:00,
2013-06-26 18:00:00,87.8,59.7,29.68,NW,315,24.0,24.0,39,0.00,,,0.00,meteohub,2013-06-26 23:00:00,
2013-06-26 18:06:00,87.8,59.7,29.68,North,0,18.0,27.0,39,0.00,,,0.00,meteohub,2013-06-26 23:06:00,
2013-06-26 18:11:00,88.2,60.1,29.67,NW,315,19.0,27.0,39,0.00,,,0.00,meteohub,2013-06-26 23:11:00,
2013-06-26 18:16:00,88.9,60.8,29.68,North,0,19.0,27.0,39,0.00,,,0.00,meteohub,2013-06-26 23:16:00,
2013-06-26 18:21:00,88.9,60.8,29.67,NW,315,21.0,21.0,39,0.00,,,0.00,meteohub,2013-06-26 23:21:00,
2013-06-26 18:26:00,88.9,59.9,29.68,NW,315,17.0,21.0,38,0.00,,,0.00,meteohub,2013-06-26 23:26:00,
2013-06-26 18:31:00,88.3,61.0,29.68,NW,315,15.0,21.0,40,0.00,,,0.00,meteohub,2013-06-26 23:31:00,
2013-06-26 18:36:00,88.7,60.6,29.67,NW,315,17.0,21.0,39,0.00,,,0.00,meteohub,2013-06-26 23:36:00,
2013-06-26 18:41:00,89.2,61.0,29.68,NW,315,15.0,21.0,39,0.00,,,0.00,meteohub,2013-06-26 23:41:00,
2013-06-26 18:46:00,89.6,60.6,29.68,North,0,15.0,19.0,38,0.00,,,0.00,meteohub,2013-06-26 23:46:00,
2013-06-26 18:51:00,89.8,60.8,29.68,NW,315,12.0,19.0,38,0.00,,,0.00,meteohub,2013-06-26 23:51:00,
2013-06-26 18:57:00,89.2,61.7,29.68,NW,315,13.0,17.0,40,0.00,,,0.00,meteohub,2013-06-26 23:57:00,
2013-06-26 19:02:00,87.4,60.8,29.68,NW,315,13.0,17.0,41,0.00,,,0.00,meteohub,2013-06-27 00:02:00,
2013-06-26 19:07:00,86.5,61.3,29.69,NW,315,11.0,17.0,43,0.00,,,0.00,meteohub,2013-06-27 00:07:00,
2013-06-26 19:12:00,86.2,61.0,29.68,North,0,12.0,17.0,43,0.00,,,0.00,meteohub,2013-06-27 00:12:00,
2013-06-26 19:17:00,85.3,61.5,29.68,NW,315,9.0,16.0,45,0.00,,,0.00,meteohub,2013-06-27 00:17:00,
2013-06-26 19:22:00,84.7,61.0,29.68,NW,315,11.0,15.0,45,0.00,,,0.00,meteohub,2013-06-27 00:22:00,
2013-06-26 19:27:00,84.2,61.2,29.68,NW,315,11.0,15.0,46,0.00,,,0.00,meteohub,2013-06-27 00:27:00,
2013-06-26 19:32:00,84.0,61.7,29.68,North,0,10.0,15.0,47,0.00,,,0.00,meteohub,2013-06-27 00:32:00,
2013-06-26 19:37:00,83.8,62.1,29.69,NW,315,8.0,15.0,48,0.00,,,0.00,meteohub,2013-06-27 00:37:00,
2013-06-26 19:42:00,83.8,62.1,29.69,NW,315,8.0,12.0,48,0.00,,,0.00,meteohub,2013-06-27 00:42:00,
2013-06-26 19:47:00,83.7,62.4,29.69,NW,315,8.0,11.0,49,0.00,,,0.00,meteohub,2013-06-27 00:47:00,
2013-06-26 19:52:00,82.9,62.4,29.69,NW,315,7.0,10.0,50,0.00,,,0.00,meteohub,2013-06-27 00:52:00,
2013-06-26 19:57:00,82.2,62.2,29.69,NW,315,7.0,10.0,51,0.00,,,0.00,meteohub,2013-06-27 00:57:00,
2013-06-26 20:02:00,82.0,62.1,29.69,West,270,7.0,8.0,51,0.00,,,0.00,meteohub,2013-06-27 01:02:00,
2013-06-26 20:08:00,81.9,61.9,29.70,West,270,8.0,8.0,51,0.00,,,0.00,meteohub,2013-06-27 01:08:00,
2013-06-26 20:13:00,81.7,61.9,29.70,NW,315,7.0,8.0,51,0.00,,,0.00,meteohub,2013-06-27 01:13:00,
2013-06-26 20:18:00,81.5,61.7,29.70,NW,315,7.0,8.0,51,0.00,,,0.00,meteohub,2013-06-27 01:18:00,
2013-06-26 20:23:00,81.1,62.4,29.70,NW,315,6.0,8.0,53,0.00,,,0.00,meteohub,2013-06-27 01:23:00,
2013-06-26 20:28:00,80.8,62.6,29.70,West,270,5.0,8.0,54,0.00,,,0.00,meteohub,2013-06-27 01:28:00,
2013-06-26 20:33:00,80.6,62.4,29.70,NW,315,6.0,8.0,54,0.00,,,0.00,meteohub,2013-06-27 01:33:00,
2013-06-26 20:38:00,80.6,62.4,29.71,NW,315,6.0,8.0,54,0.00,,,0.00,meteohub,2013-06-27 01:38:00,
2013-06-26 20:43:00,80.4,62.8,29.71,West,270,5.0,7.0,55,0.00,,,0.00,meteohub,2013-06-27 01:43:00,
2013-06-26 20:48:00,79.9,63.9,29.71,West,270,4.0,7.0,58,0.00,,,0.00,meteohub,2013-06-27 01:48:00,
2013-06-26 20:53:00,79.7,63.7,29.70,West,270,5.0,6.0,58,0.00,,,0.00,meteohub,2013-06-27 01:53:00,
2013-06-26 20:59:00,79.5,63.5,29.71,NW,315,8.0,8.0,58,0.00,,,0.00,meteohub,2013-06-27 01:59:00,
2013-06-26 21:04:00,79.2,63.7,29.71,NW,315,8.0,8.0,59,0.00,,,0.00,meteohub,2013-06-27 02:04:00,
2013-06-26 21:09:00,78.8,63.7,29.71,NW,315,5.0,8.0,60,0.00,,,0.00,meteohub,2013-06-27 02:09:00,
2013-06-26 21:14:00,78.8,63.7,29.72,NW,315,4.0,8.0,60,0.00,,,0.00,meteohub,2013-06-27 02:14:00,
2013-06-26 21:19:00,78.4,64.4,29.72,NW,315,4.0,8.0,62,0.00,,,0.00,meteohub,2013-06-27 02:19:00,
2013-06-26 21:24:00,78.4,64.8,29.72,NW,315,4.0,7.0,63,0.00,,,0.00,meteohub,2013-06-27 02:24:00,
2013-06-26 21:29:00,78.1,64.4,29.71,NW,315,4.0,4.0,63,0.00,,,0.00,meteohub,2013-06-27 02:29:00,
2013-06-26 21:34:00,78.1,64.4,29.72,North,0,4.0,5.0,63,0.00,,,0.00,meteohub,2013-06-27 02:34:00,
2013-06-26 21:39:00,78.3,64.2,29.72,North,0,3.0,5.0,62,0.00,,,0.00,meteohub,2013-06-27 02:39:00,
2013-06-26 21:44:00,78.3,64.6,29.72,North,0,3.0,5.0,63,0.00,,,0.00,meteohub,2013-06-27 02:44:00,
2013-06-26 21:50:00,78.1,64.0,29.72,NW,315,2.0,4.0,62,0.00,,,0.00,meteohub,2013-06-27 02:50:00,
2013-06-26 21:55:00,78.1,64.4,29.72,North,0,3.0,4.0,63,0.00,,,0.00,meteohub,2013-06-27 02:55:00,
2013-06-26 22:00:00,78.1,64.0,29.73,North,0,5.0,5.0,62,0.00,,,0.00,meteohub,2013-06-27 03:00:00,
2013-06-26 22:05:00,78.1,64.0,29.73,North,0,4.0,5.0,62,0.00,,,0.00,meteohub,2013-06-27 03:05:00,
2013-06-26 22:11:00,77.9,63.9,29.73,North,0,4.0,5.0,62,0.00,,,0.00,meteohub,2013-06-27 03:11:00,
2013-06-26 22:16:00,77.7,64.0,29.74,North,0,4.0,5.0,63,0.00,,,0.00,meteohub,2013-06-27 03:16:00,
2013-06-26 22:21:00,77.7,64.0,29.74,North,0,3.0,4.0,63,0.00,,,0.00,meteohub,2013-06-27 03:21:00,
2013-06-26 22:26:00,77.7,64.0,29.73,North,0,4.0,4.0,63,0.00,,,0.00,meteohub,2013-06-27 03:26:00,
2013-06-26 22:31:00,77.9,64.2,29.75,NW,315,6.0,6.0,63,0.00,,,0.00,meteohub,2013-06-27 03:31:00,
2013-06-26 22:36:00,77.7,64.0,29.75,NW,315,6.0,7.0,63,0.00,,,0.00,meteohub,2013-06-27 03:36:00,
2013-06-26 22:42:00,77.5,63.9,29.74,NW,315,5.0,7.0,63,0.00,,,0.00,meteohub,2013-06-27 03:42:00,
2013-06-26 22:47:00,77.5,63.9,29.75,West,270,8.0,8.0,63,0.00,,,0.00,meteohub,2013-06-27 03:47:00,
2013-06-26 22:52:00,77.5,63.0,29.75,West,270,9.0,9.0,61,0.00,,,0.00,meteohub,2013-06-27 03:52:00,
2013-06-26 22:57:00,77.0,63.0,29.75,West,270,8.0,9.0,62,0.00,,,0.00,meteohub,2013-06-27 03:57:00,
2013-06-26 23:01:00,76.5,63.3,29.75,NW,315,9.0,9.0,64,0.00,,,0.00,meteohub,2013-06-27 04:01:00,
2013-06-26 23:02:00,76.3,63.1,29.75,West,270,9.0,9.0,64,0.00,,,0.00,meteohub,2013-06-27 04:02:00,
2013-06-26 23:04:00,75.9,63.3,29.75,West,270,11.0,11.0,65,0.00,,,0.00,meteohub,2013-06-27 04:04:00,
2013-06-26 23:09:00,75.6,63.0,29.74,West,270,15.0,15.0,65,0.00,,,0.00,meteohub,2013-06-27 04:09:00,
2013-06-26 23:15:00,75.4,62.8,29.73,SW,225,10.0,15.0,65,0.00,,,0.00,meteohub,2013-06-27 04:15:00,
2013-06-26 23:20:00,74.7,63.0,29.73,NW,315,7.0,15.0,67,0.00,,,0.00,meteohub,2013-06-27 04:20:00,
2013-06-26 23:25:00,74.5,63.1,29.73,West,270,5.0,11.0,68,0.00,,,0.00,meteohub,2013-06-27 04:25:00,
2013-06-26 23:30:00,74.3,63.1,29.73,SW,225,4.0,11.0,68,0.00,,,0.00,meteohub,2013-06-27 04:30:00,
2013-06-26 23:35:00,73.6,62.4,29.72,SW,225,4.0,8.0,68,0.00,,,0.00,meteohub,2013-06-27 04:35:00,
2013-06-26 23:41:00,73.0,62.2,29.73,SW,225,4.0,6.0,69,0.00,,,0.00,meteohub,2013-06-27 04:41:00,
2013-06-26 23:46:00,72.3,61.5,29.73,SW,225,4.0,5.0,69,0.00,,,0.00,meteohub,2013-06-27 04:46:00,
2013-06-26 23:51:00,72.0,61.2,29.73,West,270,2.0,5.0,69,0.00,,,0.00,meteohub,2013-06-27 04:51:00,
2013-06-26 23:56:00,71.6,61.3,29.73,South,180,0.0,5.0,70,0.00,,,0.00,meteohub,2013-06-27 04:56:00,